Location: Most
(50.5330°N, 13.6500°E)
Time: 14:07:39
(UTC+01:00)

N. Korean satellite - Pass Details

Date: 28 October 2021
Orbit: 446 x 495 km, 97.3° (Epoch: 06 December)

Event Time Altitude Azimuth Distance (km) Brightness Sun altitude
Rises 05:39:03 0° 24° (NNE) 2,596 10.7 -21.2°
Reaches altitude 10° 05:41:29 10° 39° (NE) 1,702 9.9 -20.9°
Maximum altitude 05:44:27 23° 93° (E) 1,092 9.2 -20.4°
Drops below altitude 10° 05:47:22 10° 147° (SSE) 1,673 9.6 -19.9°
Sets 05:49:43 0° 163° (SSE) 2,539 10.4 -19.6°
